EW7067 Weather Reports


time (UTC)temp
C
wind
direction
speed
KPH
gust
KPH
rain 1hr
cm
rain 24hr
cm
rain mn
cm
humidity
%
barometer
mb
20260510234834 25 181 1.6 4.8 0.00 0.00 0.00 45 970.5
20260510234331 25 155 1.6 11.3 0.00 0.00 0.00 47 970.4
20260510233830 25 206 3.2 11.3 0.00 0.00 0.00 44 970.3
20260510233326 25 238 3.2 9.7 0.00 0.00 0.00 43 970.3
20260510232327 26 219 3.2 9.7 0.00 0.00 0.00 45 970.2
20260510231826 26 175 1.6 11.3 0.00 0.00 0.00 43 970.2
20260510231326 26 167 4.8 14.5 0.00 0.00 0.00 42 970.1
20260510230826 26 202 6.4 17.7 0.00 0.00 0.00 42 970.1
20260510230329 26 173 4.8 17.7 0.00 0.00 0.00 42 970.0
20260510225828 26 157 3.2 16.1 0.00 0.00 0.00 41 970.0
20260510225327 26 150 4.8 16.1 0.00 0.00 0.00 40 970.0
20260510224827 27 201 6.4 16.1 0.00 0.00 0.00 40 970.0
20260510224324 27 171 3.2 14.5 0.00 0.00 0.00 39 970.0
20260510223825 27 238 1.6 9.7 0.00 0.00 0.00 40 970.0
20260510223325 28 214 1.6 9.7 0.00 0.00 0.00 38 970.0
20260510222825 28 237 1.6 9.7 0.00 0.00 0.00 37 970.0
20260510222325 28 171 1.6 12.9 0.00 0.00 0.00 38 970.0
20260510221825 28 267 1.6 12.9 0.00 0.00 0.00 38 970.0
20260510221324 28 161 0.0 6.4 0.00 0.00 0.00 38 970.0
20260510220822 28 159 1.6 8.0 0.00 0.00 0.00 39 969.9
20260510220322 28 151 3.2 12.9 0.00 0.00 0.00 37 969.9
20260510215822 28 278 3.2 12.9 0.00 0.00 0.00 38 969.9
20260510215322 28 165 3.2 11.3 0.00 0.00 0.00 37 969.9
20260510214823 28 169 4.8 12.9 0.00 0.00 0.00 38 969.9
20260510214318 28 180 3.2 12.9 0.00 0.00 0.00 36 969.9
20260510213818 28 186 1.6 14.5 0.00 0.00 0.00 38 969.9
20260510213318 28 196 3.2 14.5 0.00 0.00 0.00 37 969.8
20260510212819 28 334 3.2 12.9 0.00 0.00 0.00 38 969.8
20260510212318 28 178 4.8 24.1 0.00 0.00 0.00 36 969.8
20260510211820 28 168 3.2 24.1 0.00 0.00 0.00 36 969.8
20260510211318 28 228 3.2 14.5 0.00 0.00 0.00 36 969.8
20260510210819 28 317 1.6 14.5 0.00 0.00 0.00 36 969.8
20260510205818 28 176 3.2 16.1 0.00 0.00 0.00 35 969.9
20260510205319 28 175 3.2 12.9 0.00 0.00 0.00 35 969.9
20260510204818 27 219 4.8 14.5 0.00 0.00 0.00 34 969.9
20260510204319 27 248 6.4 19.3 0.00 0.00 0.00 34 970.0
20260510203818 28 152 4.8 19.3 0.00 0.00 0.00 33 970.0
20260510202318 28 235 3.2 12.9 0.00 0.00 0.00 35 970.2
20260510201818 28 171 3.2 12.9 0.00 0.00 0.00 33 970.1
20260510201318 28 243 3.2 11.3 0.00 0.00 0.00 33 970.2
20260510200817 28 146 1.6 12.9 0.00 0.00 0.00 33 970.3
20260510200315 27 198 1.6 12.9 0.00 0.00 0.00 37 970.3
20260510195813 27 133 0.0 8.0 0.00 0.00 0.00 36 970.4
20260510195314 27 194 1.6 8.0 0.00 0.00 0.00 36 970.4
20260510194811 27 175 4.8 16.1 0.00 0.00 0.00 39 970.4
20260510194311 27 113 4.8 16.1 0.00 0.00 0.00 35 970.5
20260510193809 27 112 3.2 12.9 0.00 0.00 0.00 37 970.5
20260510193306 27 155 3.2 12.9 0.00 0.00 0.00 35 970.6
20260510192307 27 188 4.8 14.5 0.00 0.00 0.00 36 970.7
20260510191803 27 251 4.8 14.5 0.00 0.00 0.00 37 970.7
20260510191303 27 161 4.8 12.9 0.00 0.00 0.00 36 970.7
20260510190802 27 171 1.6 12.9 0.00 0.00 0.00 36 970.7
20260510190304 27 289 3.2 12.9 0.00 0.00 0.00 39 970.8
20260510185759 27 271 4.8 12.9 0.00 0.00 0.00 40 970.8
20260510185252 27 325 4.8 14.5 0.00 0.00 0.00 39 970.9
20260510184747 27 337 3.2 19.3 0.00 0.00 0.00 39 970.8
20260510184241 27 325 4.8 19.3 0.00 0.00 0.00 39 970.9
20260510183734 27 167 3.2 16.1 0.00 0.00 0.00 39 970.9
20260510183229 27 144 0.0 4.8 0.00 0.00 0.00 37 970.9
20260510182723 27 88 1.6 9.7 0.00 0.00 0.00 38 970.9
20260510182217 26 92 3.2 14.5 0.00 0.00 0.00 40 971.0
20260510180658 27 174 1.6 12.9 0.00 0.00 0.00 36 971.2
20260510180153 27 319 1.6 14.5 0.00 0.00 0.00 38 971.2
20260510175646 27 312 3.2 14.5 0.00 0.00 0.00 37 971.1
20260510175140 27 275 1.6 11.3 0.00 0.00 0.00 40 971.2
20260510174634 26 294 1.6 12.9 0.00 0.00 0.00 39 971.3
20260510174128 26 336 3.2 14.5 0.00 0.00 0.00 37 971.3
20260510173117 26 299 4.8 16.1 0.00 0.00 0.00 37 971.5
20260510172104 26 73 1.6 11.3 0.00 0.00 0.00 40 971.6
20260510171605 26 127 1.6 12.9 0.00 0.00 0.00 44 971.6
20260510171053 26 193 1.6 12.9 0.00 0.00 0.00 40 971.6
20260510165534 26 305 3.2 14.5 0.00 0.00 0.00 40 971.6
20260510165029 26 171 3.2 14.5 0.00 0.00 0.00 39 971.7
20260510163510 25 83 1.6 11.3 0.00 0.00 0.00 38 971.7
20260510163005 25 46 1.6 11.3 0.00 0.00 0.00 42 971.8
20260510162500 25 81 0.0 8.0 0.00 0.00 0.00 43 971.8
20260510161953 25 153 1.6 8.0 0.00 0.00 0.00 40 972.0
20260510161446 25 323 1.6 8.0 0.00 0.00 0.00 37 972.0
20260510160940 25 315 3.2 14.5 0.00 0.00 0.00 42 972.1
20260510160434 25 307 3.2 14.5 0.00 0.00 0.00 40 972.1
20260510155424 25 288 3.2 11.3 0.00 0.00 0.00 42 972.0
20260510154917 25 63 3.2 9.7 0.00 0.00 0.00 44 972.0
20260510154410 25 21 3.2 9.7 0.00 0.00 0.00 43 972.1
20260510153905 25 328 1.6 8.0 0.00 0.00 0.00 46 972.0
20260510153400 24 355 1.6 8.0 0.00 0.00 0.00 44 972.1
20260510152853 24 98 1.6 8.0 0.00 0.00 0.00 45 972.1
20260510152348 24 113 1.6 8.0 0.00 0.00 0.00 45 972.2
20260510151840 24 63 1.6 8.0 0.00 0.00 0.00 50 972.1
20260510151335 24 12 3.2 12.9 0.00 0.00 0.00 47 972.3
20260510150829 24 355 3.2 12.9 0.00 0.00 0.00 45 972.2
20260510145816 23 325 1.6 14.5 0.00 0.00 0.00 46 972.3
20260510145310 23 317 1.6 9.7 0.00 0.00 0.00 48 972.2
20260510144804 23 21 0.0 3.2 0.00 0.00 0.00 49 972.2
20260510144258 23 30 0.0 6.4 0.00 0.00 0.00 50 972.2
20260510143246 23 36 1.6 11.3 0.00 0.00 0.00 54 972.2
20260510142740 23 355 1.6 8.0 0.00 0.00 0.00 56 972.1
20260510141728 22 111 0.0 4.8 0.00 0.00 0.00 57 972.2
20260510141223 22 111 1.6 4.8 0.00 0.00 0.00 60 972.2
20260510140718 22 355 1.6 8.0 0.00 0.00 0.00 59 972.1
20260510140210 21 355 1.6 8.0 0.00 0.00 0.00 61 972.2
20260510135702 21 350 0.0 1.6 0.00 0.00 0.00 61 972.2
20260510135200 21 350 1.6 6.4 0.00 0.00 0.00 69 972.3
20260510134703 21 350 0.0 6.4 0.00 0.00 0.00 68 972.3
20260510134158 20 348 0.0 4.8 0.00 0.00 0.00 71 972.2
20260510133656 20 348 0.0 3.2 0.00 0.00 0.00 70 972.1
20260510133154 20 348 0.0 4.8 0.00 0.00 0.00 74 972.1
20260510132654 20 348 0.0 4.8 0.00 0.00 0.00 76 972.1
20260510132154 19 348 0.0 0.0 0.00 0.00 0.00 77 972.2
20260510130649 17 348 0.0 0.0 0.00 0.00 0.00 85 971.9
20260510130149 17 348 0.0 0.0 0.00 0.00 0.00 87 971.9
20260510125648 16 355 0.0 0.0 0.00 0.00 0.00 90 971.9
20260510125148 16 355 0.0 0.0 0.00 0.00 0.00 93 971.8
20260510124645 16 306 0.0 0.0 0.00 0.00 0.00 93 971.8
20260510124149 16 306 0.0 0.0 0.00 0.00 0.00 92 971.8
20260510123644 15 306 0.0 0.0 0.00 0.00 0.00 91 971.8
20260510123144 15 306 0.0 0.0 0.00 0.00 0.00 90 971.8
20260510122644 14 313 0.0 0.0 0.00 0.00 0.00 89 971.8
20260510122140 13 313 0.0 0.0 0.00 0.00 0.00 88 971.7
20260510121640 13 313 0.0 0.0 0.00 0.00 0.00 89 971.7
20260510121138 13 313 0.0 0.0 0.00 0.00 0.00 89 971.6
20260510120638 12 313 0.0 0.0 0.00 0.00 0.00 89 971.5
20260510120136 12 313 0.0 0.0 0.00 0.00 0.00 89 971.3
20260510114636 11 313 0.0 0.0 0.00 0.00 0.00 89 971.3
20260510114134 11 313 0.0 0.0 0.00 0.00 0.00 89 971.1
20260510113633 11 180 0.0 0.0 0.00 0.00 0.00 90 970.9
20260510113132 10 180 0.0 0.0 0.00 0.00 0.00 90 970.7
20260510112631 10 180 0.0 0.0 0.00 0.00 0.00 90 970.7
20260510112129 10 180 0.0 0.0 0.00 0.00 0.00 90 970.6
20260510111123 10 180 0.0 0.0 0.00 0.00 0.00 90 970.5
20260510110624 10 180 0.0 0.0 0.00 0.00 0.00 90 970.5
20260510110124 10 180 0.0 0.0 0.00 0.00 0.00 90 970.4
20260510105625 10 180 0.0 0.0 0.00 0.00 0.00 90 970.3
20260510105123 9 180 0.0 0.0 0.00 0.00 0.00 91 970.2
20260510104624 9 180 0.0 0.0 0.00 0.00 0.00 91 970.2
20260510103624 9 180 0.0 0.0 0.00 0.00 0.00 91 970.0
20260510103124 9 180 0.0 0.0 0.00 0.00 0.00 91 970.0
20260510102619 9 180 0.0 0.0 0.00 0.00 0.00 91 969.9
20260510102119 10 180 0.0 0.0 0.00 0.00 0.00 91 969.8
20260510101120 10 180 0.0 0.0 0.00 0.00 0.00 91 969.6
20260510100620 10 180 0.0 0.0 0.00 0.00 0.00 90 969.5
20260510100119 10 180 0.0 0.0 0.00 0.00 0.00 91 969.5
20260510095620 10 180 0.0 0.0 0.00 0.00 0.00 91 969.4
20260510095119 10 180 0.0 0.0 0.00 0.00 0.00 91 969.4
20260510094619 10 180 0.0 0.0 0.00 0.00 0.00 91 969.3
20260510094115 10 180 0.0 0.0 0.00 0.00 0.00 91 969.3
20260510093616 10 180 0.0 0.0 0.00 0.00 0.00 91 969.3
20260510093116 10 180 0.0 0.0 0.00 0.00 0.00 91 969.3
20260510092615 10 180 0.0 0.0 0.00 0.00 0.00 91 969.3
20260510091616 10 180 0.0 0.0 0.00 0.00 0.00 91 969.1
20260510091115 10 180 0.0 0.0 0.00 0.00 0.00 91 969.1
20260510090116 11 180 0.0 0.0 0.00 0.00 0.00 91 969.0
20260510085615 11 180 0.0 0.0 0.00 0.00 0.00 90 969.0
20260510085115 11 180 0.0 0.0 0.00 0.00 0.00 90 969.0
20260510084613 11 180 0.0 0.0 0.00 0.00 0.00 90 969.0
20260510084112 11 180 0.0 0.0 0.00 0.00 0.00 91 968.9
20260510083611 11 180 0.0 0.0 0.00 0.00 0.00 91 968.9
20260510083112 11 180 0.0 0.0 0.00 0.00 0.00 91 968.8
20260510082111 11 180 0.0 0.0 0.00 0.00 0.00 91 968.7
20260510081109 12 180 0.0 0.0 0.00 0.00 0.00 90 968.6
20260510080607 12 180 0.0 3.2 0.00 0.00 0.00 90 968.5
20260510080105 12 180 0.0 3.2 0.00 0.00 0.00 91 968.4
20260510075100 12 180 0.0 0.0 0.00 0.00 0.00 91 968.2
20260510074557 12 180 0.0 0.0 0.00 0.00 0.00 91 968.2
20260510074050 12 180 0.0 0.0 0.00 0.00 0.00 91 968.3
20260510073545 12 180 0.0 0.0 0.00 0.00 0.00 91 968.2
20260510072533 12 180 0.0 0.0 0.00 0.00 0.00 91 968.2
20260510072027 12 180 0.0 0.0 0.00 0.00 0.00 91 968.2
20260510071015 13 180 0.0 0.0 0.00 0.00 0.00 91 968.1
20260510070509 13 180 0.0 0.0 0.00 0.00 0.00 91 968.2
20260510070004 13 180 0.0 0.0 0.00 0.00 0.00 91 968.1
20260510065457 13 180 0.0 0.0 0.00 0.00 0.00 91 968.1
20260510064444 13 180 0.0 0.0 0.00 0.00 0.00 91 968.1
20260510063433 13 180 0.0 0.0 0.00 0.00 0.00 91 968.2
20260510062927 13 180 0.0 0.0 0.00 0.00 0.00 91 968.2
20260510062421 13 180 0.0 0.0 0.00 0.00 0.00 91 968.1
20260510061914 13 180 0.0 0.0 0.00 0.00 0.00 91 968.1
20260510061408 13 180 0.0 0.0 0.00 0.00 0.00 91 968.2
20260510060903 13 180 0.0 0.0 0.00 0.00 0.00 92 968.4
20260510060357 13 180 0.0 0.0 0.00 0.00 0.00 92 968.4
20260510055851 13 180 0.0 0.0 0.00 0.00 0.00 91 968.4
20260510055345 13 180 0.0 0.0 0.00 0.00 0.00 91 968.4
20260510054839 13 180 0.0 0.0 0.00 0.00 0.00 92 968.5
20260510054333 13 180 0.0 0.0 0.00 0.00 0.00 92 968.5
20260510053828 13 180 0.0 0.0 0.00 0.00 0.00 92 968.4
20260510053320 13 180 0.0 0.0 0.00 0.00 0.00 92 968.4
20260510052814 14 180 0.0 0.0 0.00 0.00 0.00 92 968.4
20260510050751 14 181 0.0 0.0 0.00 0.00 0.00 92 968.5
20260510050245 14 181 0.0 0.0 0.00 0.00 0.00 92 968.5
20260510045739 14 181 0.0 0.0 0.00 0.00 0.00 92 968.6
20260510044728 15 181 0.0 0.0 0.00 0.00 0.00 92 968.6
20260510044221 15 181 0.0 0.0 0.00 0.00 0.00 92 968.5
20260510043714 15 181 0.0 0.0 0.00 0.00 0.00 92 968.4
20260510042703 15 181 0.0 0.0 0.00 0.00 0.00 93 968.5
20260510041651 15 181 0.0 0.0 0.00 0.00 0.00 93 968.6
20260510041145 15 181 0.0 0.0 0.00 0.00 0.00 93 968.5
20260510040638 15 181 0.0 0.0 0.00 0.00 0.00 93 968.4
20260510040133 15 181 0.0 0.0 0.00 0.00 0.00 93 968.5
20260510035121 15 181 0.0 0.0 0.00 0.00 0.00 93 968.5
20260510034615 15 181 0.0 0.0 0.00 0.00 0.00 93 968.4
20260510034108 15 181 0.0 0.0 0.00 0.00 0.00 93 968.4
20260510033602 15 181 0.0 0.0 0.00 0.00 0.00 93 968.4
20260510033056 15 181 0.0 0.0 0.00 0.00 0.00 93 968.5
20260510032550 16 181 0.0 0.0 0.00 0.00 0.00 93 968.4
20260510032045 16 181 0.0 0.0 0.00 0.00 0.00 93 968.6
20260510031538 16 181 0.0 0.0 0.00 0.00 0.00 93 968.6
20260510031032 16 181 0.0 0.0 0.00 0.00 0.00 93 968.6
20260510030526 16 181 0.0 0.0 0.00 0.00 0.00 93 968.5
20260510030021 16 181 0.0 0.0 0.00 0.00 0.00 93 968.5
20260510025515 16 181 0.0 0.0 0.00 0.00 0.00 92 968.6
20260510023957 17 181 0.0 0.0 0.00 0.00 0.00 92 968.4
20260510023451 17 181 0.0 0.0 0.00 0.00 0.00 91 968.4
20260510022946 17 181 0.0 0.0 0.00 0.00 0.00 91 968.3
20260510022438 17 181 0.0 0.0 0.00 0.00 0.00 91 968.3
20260510021933 17 181 0.0 0.0 0.00 0.00 0.00 90 968.2
20260510021427 17 181 0.0 0.0 0.00 0.00 0.00 90 968.2
20260510020921 18 181 0.0 0.0 0.00 0.00 0.00 89 968.1
20260510020414 18 181 0.0 0.0 0.00 0.00 0.00 89 968.2
20260510015908 18 181 0.0 0.0 0.00 0.00 0.00 88 968.0
20260510015403 18 181 0.0 0.0 0.00 0.00 0.00 88 967.8
20260510014857 18 181 0.0 0.0 0.00 0.00 0.00 87 967.8
20260510014351 18 181 0.0 0.0 0.00 0.00 0.00 87 967.7
20260510013844 18 181 0.0 3.2 0.00 0.00 0.00 86 967.6
20260510013339 18 181 0.0 3.2 0.00 0.00 0.00 86 967.6
20260510012832 19 181 0.0 4.8 0.00 0.00 0.00 86 967.6
20260510011821 19 182 0.0 4.8 0.00 0.00 0.00 85 967.5
20260510011315 19 182 1.6 6.4 0.00 0.00 0.00 84 967.4
20260510004745 20 205 1.6 8.0 0.00 0.00 0.00 84 966.9
20260510004239 20 154 0.0 6.4 0.00 0.00 0.00 84 966.8
20260510003733 20 183 0.0 0.0 0.00 0.00 0.00 84 966.7
20260510003227 20 183 0.0 0.0 0.00 0.00 0.00 83 966.6
20260510002721 20 183 0.0 0.0 0.00 0.00 0.00 83 966.5
20260510002215 20 183 0.0 0.0 0.00 0.00 0.00 82 966.5
20260510001708 20 183 0.0 4.8 0.00 0.00 0.00 81 966.4
20260510001203 20 183 1.6 4.8 0.00 0.00 0.00 81 966.3
20260510000658 20 164 0.0 6.4 0.00 0.00 0.00 80 966.3
20260509235651 20 189 1.6 11.3 0.00 0.00 0.00 80 966.2
20260509235151 21 230 1.6 11.3 0.00 0.00 0.00 79 966.0